Regional Weather Roundup
Issued by NWS Little Rock, AR

Home | Current Version | Previous Version | Graphics & Text | Print | Product List | Glossary On
Versions: 1 2 3 4 5 6 7 8 9 10 11 12 13 14 15 16 17 18 19 20 21 22 23 24 25 26 27 28 29 30 31 32 33 34 35 36 37 38 39 40 41 42 43 44 45 46 47 48 49 50
000
ASUS44 KLZK 090305
RWRLZK

WEATHER ROUNDUP FOR ARKANSAS
NATIONAL WEATHER SERVICE LITTLE ROCK AR
900 PM CST MON FEB 08 2016

NOTE: "FAIR" INDICATES FEW OR NO CLOUDS BELOW 12,000 FEET WITH NO
SIGNIFICANT WEATHER AND/OR OBSTRUCTIONS TO VISIBILITY.

ARZ001-003-010-029-090400-
NORTHWEST ARKANSAS

CITY           SKY/WX    TMP DP  RH WIND       PRES   REMARKS
FAYETTEVILLE   CLEAR     32  14  47 NW10      30.11S WCI  24
FORT SMITH     CLEAR     41  10  28 NW14G25   30.15R
HARRISON       CLEAR     31  14  49 NW13G23   30.03S WCI  21
BENTONVILLE    CLEAR     32  10  40 NW8       30.11S WCI  25
ROGERS         CLEAR     32  15  49 NW14      30.10R WCI  22
SILOAM SPGS    CLEAR     34  10  37 NW14      30.13S WCI  24
HIGHFILL       CLEAR     33  14  45 NW10      30.10S WCI  25
SPRINGDALE     CLEAR     32  12  43 NW17G29   30.11S WCI  21
$$

ARZ004-005-016-090400-
NORTH CENTRAL ARKANSAS

CITY           SKY/WX    TMP DP  RH WIND       PRES   REMARKS
BATESVILLE     CLOUDY    37  16  41 W12G21    30.03S
FLIPPIN        PTCLDY    34  12  40 NW8G21    30.03R WCI  27
MTN HOME       CLOUDY    33  15  47 NW10G18   30.02R WCI  25
$$

ARZ040-041-090400-
WEST CENTRAL ARKANSAS

CITY           SKY/WX    TMP DP  RH WIND       PRES   REMARKS
MENA           PTCLDY    43  14  31 NW10G17   30.12R
MOUNT IDA      CLEAR     41  11  29 N6        30.08R
$$

ARZ009-017-025-026-028-090400-
NORTHEAST ARKANSAS

CITY           SKY/WX    TMP DP  RH WIND       PRES   REMARKS
CORNING        FAIR      32  19  59 NW20G35   30.00S WCI  20
JONESBORO      CLOUDY    34  20  56 NW12G25   30.00S WCI  25
NEWPORT        CLOUDY    36  18  48 NW14      30.04S
WALNUT RIDGE   MOCLDY    34  18  51 N20G28    30.02S WCI  22
BLYTHEVILLE    CLOUDY    36  22  56 NW20      29.99F
$$

ARZ022-023-033-042-044-090400-
CENTRAL ARKANSAS

CITY           SKY/WX    TMP DP  RH WIND       PRES   REMARKS
LITTLE ROCK    CLEAR     39  16  39 W8        30.08S
N LITTLE ROCK  CLEAR     36  19  49 W5        30.08S
JACKSONVILLE   CLEAR     36  17  45 W2        30.06S
SEARCY         CLOUDY    37  18  44 W7        30.07S
HOT SPRINGS    CLEAR     42  14  32 NW8G17    30.09R
RUSSELLVILLE   CLEAR     40  13  33 NW18G37   30.08R
CLINTON        FAIR      36  16  44 CALM      30.06S
$$

ARZ036-090400-
EAST ARKANSAS

CITY           SKY/WX    TMP DP  RH WIND       PRES   REMARKS
WEST MEMPHIS   CLOUDY    36  23  59 NW9       30.02S
$$

ARZ050-053-066-070-073-090400-
SOUTHWEST ARKANSAS

CITY           SKY/WX    TMP DP  RH WIND       PRES   REMARKS
ARKADELPHIA    FAIR      43  15  32 W8        30.12R
CAMDEN         MIX PCPN  39  12  33 NW5       30.12S
TEXARKANA      CLEAR     42  14  32 NW7       30.15R
EL DORADO      CLEAR     40  15  36 W5        30.12S
DE QUEEN       CLEAR     43  14  31 NW8       30.15R
$$

ARZ056-057-069-090400-
SOUTHEAST ARKANSAS

CITY           SKY/WX    TMP DP  RH WIND       PRES   REMARKS
PINE BLUFF     CLEAR     38  18  44 NW5       30.09R
STUTTGART      CLOUDY    39  21  48 NW12      30.07S
MONTICELLO     CLEAR     38  18  44 W5        30.08S

$$





USA.gov is the U.S. government's official web portal to all federal, state and local government web resources and services.